ラッセル第1彗星

83P/Russell 1 (1998)

English version
Home page
Total 6,336 html files since Dec. 4, 1995
Updated on January 16, 2006

---------------------------------------------------------------------

・ プロフィール

・ 軌道要素

Epoch 1998 Aug. 15.0 TT = JDT 2451040.5
T 1998 Aug. 25.90698 TT                                 Muraoka
q   2.1821842            (2000.0)            P               Q
n   0.12897283     Peri.  333.89019     -0.92254464     +0.31644707
a   3.8797514      Node   226.43833     -0.27862079     -0.94218665
e   0.4375454      Incl.   17.74423     -0.26698659     -0.11020689
P   7.64
>From 20 observations 1979-1985, mean residual 1".30.

・ 星図

・ 光度変化

        m1 = 14.0 + 5 logΔ + 20 log r

---------------------------------------------------------------------

軌道要素は村岡健治氏の計算によるものです。
星図は StellaNavigator Ver.2.0 for Windows (アストロアーツ 編著 / アスキー出版局刊) で作成したものです。
光度グラフはComet for Windowsで作成したものです。

---------------------------------------------------------------------

Copyright(C) 1995-2008 Seiichi Yoshida (comet@aerith.net). All rights reserved.